"Period start","avg(HW err(1)/warn(2) (#))","avg(Visibility (m))","avg(Weather code (#))","avg(Precip intensity (mm/h))","min(HW err(1)/warn(2) (#))","max(HW err(1)/warn(2) (#))","std(HW err(1)/warn(2) (#))","med(HW err(1)/warn(2) (#))","min(Visibility (m))","max(Visibility (m))","std(Visibility (m))","med(Visibility (m))","min(Weather code (#))","max(Weather code (#))","std(Weather code (#))","med(Weather code (#))","min(Precip intensity (mm/h))","max(Precip intensity (mm/h))","std(Precip intensity (mm/h))","med(Precip intensity (mm/h))"
2017-09-28 00:00:00,2,49959,0,0.00,2,2,0,2,49593,50000,122,50000,0,0,0,0,0.00,0.00,0.00,0.00
2017-09-28 00:10:00,2,49471,0,0.00,2,2,0,2,47175,50000,925,50000,0,0,0,0,0.00,0.00,0.00,0.00
2017-09-28 00:20:00,2,50000,0,0.00,2,2,0,2,50000,50000,0,50000,0,0,0,0,0.00,0.00,0.00,0.00
2017-09-28 00:30:00,2,49628,0,0.00,2,2,0,2,46989,50000,901,50000,0,0,0,0,0.00,0.00,0.00,0.00
2017-09-28 00:40:00,2,49576,0,0.00,2,2,0,2,46362,50000,1086,50000,0,0,0,0,0.00,0.00,0.00,0.00
2017-09-28 00:50:00,2,48862,0,0.00,2,2,0,2,42978,50000,2112,50000,0,0,0,0,0.00,0.00,0.00,0.00
2017-09-28 01:00:00,2,46996,0,0.00,2,2,0,2,28787,50000,6244,50000,0,0,0,0,0.00,0.00,0.00,0.00
2017-09-28 01:10:00,2,16690,0,0.00,2,2,0,2,10287,26912,6092,14602,0,0,0,0,0.00,0.00,0.00,0.00
2017-09-28 01:20:00,2,18381,0,0.00,2,2,0,2,7562,29931,6856,18744,0,0,0,0,0.00,0.00,0.00,0.00
2017-09-28 01:30:00,2,7389,23,0.07,2,2,0,2,3021,20666,5281,4770,0,71,25,20,0.00,0.50,0.15,0.00
2017-09-28 01:40:00,2,1866,71,1.90,2,2,0,2,904,3123,764,1941,71,71,0,71,0.30,4.40,1.39,1.18
2017-09-28 01:50:00,2,1798,71,1.35,2,2,0,2,1246,3093,587,1614,71,71,0,71,0.20,2.45,0.73,1.48
2017-09-28 02:00:00,2,1642,71,3.69,2,2,0,2,1061,2648,413,1645,71,71,0,71,1.65,6.90,1.70,3.32
2017-09-28 02:10:00,2,2652,71,2.41,2,2,0,2,1635,3998,861,2396,71,71,0,71,0.45,5.15,1.44,2.23
2017-09-28 02:20:00,2,1989,71,3.82,2,2,0,2,1429,3169,608,1690,71,71,0,71,0.85,5.90,1.57,4.22
2017-09-28 02:30:00,2,1600,71,2.83,2,2,0,2,997,2435,475,1540,71,71,0,71,0.25,7.40,2.46,2.27
2017-09-28 02:40:00,2,1519,71,4.31,2,2,0,2,803,2466,565,1385,71,71,0,71,0.50,8.40,2.85,5.35
2017-09-28 02:50:00,2,2584,71,0.39,2,2,0,2,1686,3378,545,2566,71,71,0,71,0.00,1.90,0.58,0.10
2017-09-28 03:00:00,2,1530,71,2.60,2,2,0,2,813,2439,538,1566,71,71,0,71,0.25,6.40,2.26,1.60
2017-09-28 03:10:00,2,900,71,6.94,2,2,0,2,419,1253,234,922,71,72,0,71,2.25,17.45,4.21,5.57
2017-09-28 03:20:00,2,880,72,10.21,2,2,0,2,438,2053,553,567,71,72,0,72,0.50,18.95,6.00,11.82
2017-09-28 03:30:00,2,2976,71,0.67,2,2,0,2,1264,5974,1527,2574,71,71,0,71,0.10,1.65,0.49,0.60
2017-09-28 03:40:00,2,3153,71,0.29,2,2,0,2,2463,3876,459,3148,71,71,0,71,0.05,0.80,0.27,0.15
2017-09-28 03:50:00,2,5514,71,0.20,2,2,0,2,3327,6998,1127,5952,71,71,0,71,0.00,0.35,0.09,0.23
2017-09-28 04:00:00,2,23885,57,0.05,2,2,0,2,5444,39278,11787,22940,0,77,29,71,0.00,0.40,0.12,0.00
2017-09-28 04:10:00,2,24276,29,0.03,2,2,0,2,2779,47576,18366,23116,0,77,36,0,0.00,0.25,0.08,0.00
2017-09-28 04:20:00,2,11911,69,0.69,2,2,0,2,851,20351,6439,13239,41,77,14,77,0.00,5.25,1.60,0.00
2017-09-28 04:30:00,2,1898,71,2.09,2,2,0,2,615,6376,1539,1423,71,71,0,71,0.05,3.60,0.98,1.90
2017-09-28 04:40:00,2,4726,71,0.39,2,2,0,2,2312,11073,2856,3121,71,71,0,71,0.00,1.15,0.32,0.35
2017-09-28 04:50:00,2,3944,68,0.61,2,2,0,2,1867,9438,2746,2514,61,71,5,71,0.10,1.20,0.40,0.60
2017-09-28 05:00:00,2,15448,57,0.20,2,2,0,2,1962,36272,12823,11344,0,71,28,71,0.00,0.95,0.31,0.05
2017-09-28 05:10:00,2,45738,0,0.00,2,2,0,2,31348,50000,6273,49450,0,0,0,0,0.00,0.00,0.00,0.00
2017-09-28 05:20:00,2,49292,0,0.00,2,2,0,2,46063,50000,1428,50000,0,0,0,0,0.00,0.00,0.00,0.00
2017-09-28 05:30:00,2,49981,0,0.00,2,2,0,2,49813,50000,56,50000,0,0,0,0,0.00,0.00,0.00,0.00
2017-09-28 05:40:00,2,31337,12,0.00,2,2,0,2,12501,50000,14194,31255,0,41,19,0,0.00,0.00,0.00,0.00
2017-09-28 05:50:00,2,49384,0,0.00,2,2,0,2,46435,50000,1250,50000,0,0,0,0,0.00,0.00,0.00,0.00
2017-09-28 06:00:00,2,27219,23,0.59,2,2,0,2,1576,50000,21898,28690,0,71,25,20,0.00,3.00,0.99,0.00
2017-09-28 06:10:00,2,11618,64,1.07,2,2,0,2,1340,39487,13140,4476,0,71,21,71,0.00,3.80,1.36,0.12
2017-09-28 06:20:00,2,48722,0,0.00,2,2,0,2,39866,50000,2979,49992,0,0,0,0,0.00,0.00,0.00,0.00
2017-09-28 06:30:00,2,29397,8,0.01,2,2,0,2,7225,50000,13449,28162,0,41,16,0,0.00,0.05,0.02,0.00
2017-09-28 06:40:00,2,48156,0,0.00,2,2,0,2,37711,50000,3781,50000,0,0,0,0,0.00,0.00,0.00,0.00
2017-09-28 06:50:00,2,2631,58,1.30,2,2,0,2,1144,5499,1411,2007,0,71,23,71,0.00,2.90,1.00,1.12
2017-09-28 07:00:00,2,34755,34,0.01,2,2,0,2,6640,50000,18323,46912,0,71,34,34,0.00,0.05,0.02,0.00
2017-09-28 07:10:00,2,50000,0,0.00,2,2,0,2,50000,50000,0,50000,0,0,0,0,0.00,0.00,0.00,0.00
2017-09-28 07:20:00,2,32476,4,0.01,2,2,0,2,2878,50000,19403,40742,0,40,12,0,0.00,0.05,0.02,0.00
2017-09-28 07:30:00,2,22191,24,0.06,2,2,0,2,3183,48607,18130,15236,0,41,20,40,0.00,0.25,0.09,0.00
2017-09-28 07:40:00,2,8662,75,0.02,2,2,0,2,4749,18592,4201,6578,71,77,3,77,0.00,0.10,0.03,0.00
2017-09-28 07:50:00,2,18916,75,0.03,2,2,0,2,7490,37340,10461,17919,71,77,3,77,0.00,0.15,0.05,0.00
2017-09-28 08:00:00,2,18612,28,0.07,2,2,0,2,3155,37953,12234,21598,0,71,35,0,0.00,0.30,0.11,0.00
2017-09-28 08:10:00,2,49779,0,0.00,2,2,0,2,47793,50000,662,50000,0,0,0,0,0.00,0.00,0.00,0.00
2017-09-28 08:20:00,2,50000,0,0.00,2,2,0,2,50000,50000,0,50000,0,0,0,0,0.00,0.00,0.00,0.00
2017-09-28 08:30:00,2,50000,0,0.00,2,2,0,2,50000,50000,0,50000,0,0,0,0,0.00,0.00,0.00,0.00
2017-09-28 08:40:00,2,30926,0,0.00,2,2,0,2,9839,50000,15748,29108,0,0,0,0,0.00,0.00,0.00,0.00
2017-09-28 08:50:00,2,42323,0,0.00,2,2,0,2,19499,50000,11625,50000,0,0,0,0,0.00,0.00,0.00,0.00
2017-09-28 09:00:00,2,50000,0,0.00,2,2,0,2,50000,50000,0,50000,0,0,0,0,0.00,0.00,0.00,0.00
2017-09-28 09:10:00,2,50000,0,0.00,2,2,0,2,50000,50000,0,50000,0,0,0,0,0.00,0.00,0.00,0.00
2017-09-28 09:20:00,2,50000,0,0.00,2,2,0,2,50000,50000,0,50000,0,0,0,0,0.00,0.00,0.00,0.00
2017-09-28 09:30:00,2,50000,0,0.00,2,2,0,2,50000,50000,0,50000,0,0,0,0,0.00,0.00,0.00,0.00
2017-09-28 09:40:00,2,50000,0,0.00,2,2,0,2,50000,50000,0,50000,0,0,0,0,0.00,0.00,0.00,0.00
2017-09-28 09:50:00,2,37249,22,0.00,2,2,0,2,10992,50000,15666,46962,0,71,29,0,0.00,0.00,0.00,0.00
2017-09-28 10:00:00,2,46022,0,0.00,2,2,0,2,28260,50000,7998,50000,0,0,0,0,0.00,0.00,0.00,0.00
2017-09-28 10:10:00,2,13797,36,0.20,2,2,0,2,2459,32049,8916,12348,0,71,32,40,0.00,1.40,0.42,0.00
2017-09-28 10:20:00,2,45868,0,0.00,2,2,0,2,30412,50000,7204,50000,0,0,0,0,0.00,0.00,0.00,0.00
2017-09-28 10:30:00,2,32327,24,0.02,2,2,0,2,5605,50000,18450,40352,0,77,26,20,0.00,0.10,0.03,0.00
2017-09-28 10:40:00,2,13969,57,0.54,2,2,0,2,1980,37681,12862,7826,0,71,28,71,0.00,2.70,0.83,0.05
2017-09-28 10:50:00,2,49755,0,0.00,2,2,0,2,47546,50000,736,50000,0,0,0,0,0.00,0.00,0.00,0.00
2017-09-28 11:00:00,2,50000,0,0.00,2,2,0,2,50000,50000,0,50000,0,0,0,0,0.00,0.00,0.00,0.00
2017-09-28 11:10:00,2,50000,0,0.00,2,2,0,2,50000,50000,0,50000,0,0,0,0,0.00,0.00,0.00,0.00
2017-09-28 11:20:00,2,50000,0,0.00,2,2,0,2,50000,50000,0,50000,0,0,0,0,0.00,0.00,0.00,0.00
2017-09-28 11:30:00,2,50000,0,0.00,2,2,0,2,50000,50000,0,50000,0,0,0,0,0.00,0.00,0.00,0.00
2017-09-28 11:40:00,2,50000,0,0.00,2,2,0,2,50000,50000,0,50000,0,0,0,0,0.00,0.00,0.00,0.00
2017-09-28 11:50:00,2,50000,0,0.00,2,2,0,2,50000,50000,0,50000,0,0,0,0,0.00,0.00,0.00,0.00
2017-09-28 12:00:00,2,49536,0,0.00,2,2,0,2,47669,50000,928,50000,0,0,0,0,0.00,0.00,0.00,0.00
2017-09-28 12:10:00,2,37024,22,0.00,2,2,0,2,10622,50000,12939,40142,0,71,29,0,0.00,0.00,0.00,0.00
2017-09-28 12:20:00,2,30602,19,0.17,2,2,0,2,2881,50000,22001,45258,0,71,25,0,0.00,0.75,0.27,0.00
2017-09-28 12:30:00,2,8361,57,0.49,2,2,0,2,2098,28880,8089,3980,0,71,28,71,0.00,1.35,0.56,0.12
2017-09-28 12:40:00,2,3643,71,0.70,2,2,0,2,2159,6477,1510,3326,71,71,0,71,0.15,1.95,0.58,0.50
2017-09-28 12:50:00,2,1558,71,3.49,2,2,0,2,841,2159,365,1468,71,71,0,71,1.10,5.15,1.19,3.50
2017-09-28 13:00:00,2,2768,71,2.85,2,2,0,2,1059,8955,2236,1938,71,71,0,71,0.05,5.10,1.59,3.23
2017-09-28 13:10:00,2,2648,71,2.59,2,2,0,2,866,7122,1930,1918,71,71,0,71,0.00,5.50,2.00,2.17
2017-09-28 13:20:00,2,22548,36,0.82,2,2,0,2,1016,50000,19329,14750,0,71,36,36,0.00,5.80,1.76,0.03
2017-09-28 13:30:00,2,50000,0,0.00,2,2,0,2,50000,50000,0,50000,0,0,0,0,0.00,0.00,0.00,0.00
2017-09-28 13:40:00,2,50000,0,0.00,2,2,0,2,50000,50000,0,50000,0,0,0,0,0.00,0.00,0.00,0.00
2017-09-28 13:50:00,2,50000,0,0.00,2,2,0,2,50000,50000,0,50000,0,0,0,0,0.00,0.00,0.00,0.00
2017-09-28 14:00:00,2,50000,0,0.00,2,2,0,2,50000,50000,0,50000,0,0,0,0,0.00,0.00,0.00,0.00
2017-09-28 14:10:00,2,50000,0,0.00,2,2,0,2,50000,50000,0,50000,0,0,0,0,0.00,0.00,0.00,0.00
2017-09-28 14:20:00,2,49972,0,0.00,2,2,0,2,49725,50000,82,50000,0,0,0,0,0.00,0.00,0.00,0.00
2017-09-28 14:30:00,2,50000,0,0.00,2,2,0,2,50000,50000,0,50000,0,0,0,0,0.00,0.00,0.00,0.00
2017-09-28 14:40:00,2,50000,0,0.00,2,2,0,2,50000,50000,0,50000,0,0,0,0,0.00,0.00,0.00,0.00
2017-09-28 14:50:00,2,27626,0,0.00,2,2,0,2,5446,50000,16365,23645,0,0,0,0,0.00,0.00,0.00,0.00
2017-09-28 15:00:00,2,50000,0,0.00,2,2,0,2,50000,50000,0,50000,0,0,0,0,0.00,0.00,0.00,0.00
2017-09-28 15:10:00,2,50000,0,0.00,2,2,0,2,50000,50000,0,50000,0,0,0,0,0.00,0.00,0.00,0.00
2017-09-28 15:20:00,2,50000,0,0.00,2,2,0,2,50000,50000,0,50000,0,0,0,0,0.00,0.00,0.00,0.00
2017-09-28 15:30:00,2,50000,0,0.00,2,2,0,2,50000,50000,0,50000,0,0,0,0,0.00,0.00,0.00,0.00
2017-09-28 15:40:00,2,50000,0,0.00,2,2,0,2,50000,50000,0,50000,0,0,0,0,0.00,0.00,0.00,0.00
2017-09-28 15:50:00,2,49942,0,0.00,2,2,0,2,49416,50000,175,50000,0,0,0,0,0.00,0.00,0.00,0.00
2017-09-28 16:00:00,2,50000,0,0.00,2,2,0,2,50000,50000,0,50000,0,0,0,0,0.00,0.00,0.00,0.00
2017-09-28 16:10:00,2,30550,22,0.55,2,2,0,2,2004,50000,22645,46934,0,71,29,0,0.00,3.80,1.14,0.00
2017-09-28 16:20:00,2,4089,71,1.78,2,2,0,2,1335,11630,3148,2666,71,71,0,71,0.00,4.70,1.71,1.45
2017-09-28 16:30:00,2,5444,64,2.44,2,2,0,2,1210,26001,7117,2854,0,71,21,71,0.00,6.75,2.33,1.98
2017-09-28 16:40:00,2,17113,38,0.25,2,2,0,2,2225,50000,19674,3180,0,77,34,40,0.00,0.90,0.30,0.08
2017-09-28 16:50:00,2,3122,71,2.33,2,2,0,2,1109,10367,3032,1496,71,71,0,71,0.00,6.25,1.95,2.00
2017-09-28 17:00:00,2,40049,7,0.00,2,2,0,2,15028,50000,12699,48238,0,71,21,0,0.00,0.00,0.00,0.00
2017-09-28 17:10:00,2,50000,0,0.00,2,2,0,2,50000,50000,0,50000,0,0,0,0,0.00,0.00,0.00,0.00
2017-09-28 17:20:00,2,50000,0,0.00,2,2,0,2,50000,50000,0,50000,0,0,0,0,0.00,0.00,0.00,0.00
2017-09-28 17:30:00,2,50000,0,0.00,2,2,0,2,50000,50000,0,50000,0,0,0,0,0.00,0.00,0.00,0.00
2017-09-28 17:40:00,2,50000,0,0.00,2,2,0,2,50000,50000,0,50000,0,0,0,0,0.00,0.00,0.00,0.00
2017-09-28 17:50:00,2,50000,0,0.00,2,2,0,2,50000,50000,0,50000,0,0,0,0,0.00,0.00,0.00,0.00
2017-09-28 18:00:00,2,50000,0,0.00,2,2,0,2,50000,50000,0,50000,0,0,0,0,0.00,0.00,0.00,0.00
2017-09-28 18:10:00,2,50000,0,0.00,2,2,0,2,50000,50000,0,50000,0,0,0,0,0.00,0.00,0.00,0.00
2017-09-28 18:20:00,2,36016,0,0.00,2,2,0,2,13095,50000,14468,42546,0,0,0,0,0.00,0.00,0.00,0.00
2017-09-28 18:30:00,2,17735,5,0.01,2,2,0,2,2684,50000,19027,6482,0,40,12,0,0.00,0.05,0.02,0.00
2017-09-28 18:40:00,2,2803,68,1.65,2,2,0,2,804,8291,2179,1834,40,71,9,71,0.00,6.10,1.92,0.95
2017-09-28 18:50:00,2,45546,14,0.00,2,2,0,2,21784,50000,8685,49960,0,71,28,0,0.00,0.00,0.00,0.00
2017-09-28 19:00:00,2,40235,0,0.00,2,2,0,2,9573,50000,12352,45847,0,0,0,0,0.00,0.00,0.00,0.00
2017-09-28 19:10:00,2,11066,16,0.03,2,2,0,2,2425,20438,5009,11155,0,41,20,0,0.00,0.10,0.03,0.00
2017-09-28 19:20:00,2,3788,70,0.17,2,2,0,2,1509,12225,3030,2682,41,77,14,77,0.00,0.40,0.16,0.08
2017-09-28 19:30:00,2,36888,36,0.00,2,2,0,2,5159,50000,17298,48538,10,77,32,10,0.00,0.00,0.00,0.00
2017-09-28 19:40:00,2,48967,0,0.00,2,2,0,2,41868,50000,2408,50000,0,0,0,0,0.00,0.00,0.00,0.00
2017-09-28 19:50:00,2,46077,0,0.00,2,2,0,2,33297,50000,5628,49951,0,0,0,0,0.00,0.00,0.00,0.00
2017-09-28 20:00:00,2,50000,0,0.00,2,2,0,2,50000,50000,0,50000,0,0,0,0,0.00,0.00,0.00,0.00
2017-09-28 20:10:00,2,40490,0,0.00,2,2,0,2,17475,50000,11864,47262,0,0,0,0,0.00,0.00,0.00,0.00
2017-09-28 20:20:00,2,50000,0,0.00,2,2,0,2,50000,50000,0,50000,0,0,0,0,0.00,0.00,0.00,0.00
2017-09-28 20:30:00,2,50000,0,0.00,2,2,0,2,50000,50000,0,50000,0,0,0,0,0.00,0.00,0.00,0.00
2017-09-28 20:40:00,2,50000,0,0.00,2,2,0,2,50000,50000,0,50000,0,0,0,0,0.00,0.00,0.00,0.00
2017-09-28 20:50:00,2,50000,0,0.00,2,2,0,2,50000,50000,0,50000,0,0,0,0,0.00,0.00,0.00,0.00
2017-09-28 21:00:00,2,49293,0,0.00,2,2,0,2,46657,50000,1257,50000,0,0,0,0,0.00,0.00,0.00,0.00
2017-09-28 21:10:00,2,32527,0,0.00,2,2,0,2,6744,50000,16279,32078,0,0,0,0,0.00,0.00,0.00,0.00
2017-09-28 21:20:00,2,38632,0,0.00,2,2,0,2,20959,49477,9844,43969,0,0,0,0,0.00,0.00,0.00,0.00
2017-09-28 21:30:00,2,43492,0,0.00,2,2,0,2,37079,48710,3784,44676,0,0,0,0,0.00,0.00,0.00,0.00
2017-09-28 21:40:00,2,37083,0,0.00,2,2,0,2,23936,50000,9020,35914,0,0,0,0,0.00,0.00,0.00,0.00
2017-09-28 21:50:00,2,45331,4,0.00,2,2,0,2,13396,50000,10789,50000,0,40,12,0,0.00,0.00,0.00,0.00
2017-09-28 22:00:00,2,3735,62,2.70,2,2,0,2,1098,16237,4366,2034,40,71,14,71,0.00,5.60,1.63,2.30
2017-09-28 22:10:00,2,8628,71,0.08,2,2,0,2,3102,13400,3517,9850,71,71,0,71,0.00,0.25,0.10,0.03
2017-09-28 22:20:00,2,12537,28,0.24,2,2,0,2,1305,30524,11377,5989,10,71,20,25,0.00,0.95,0.33,0.03
2017-09-28 22:30:00,2,3664,71,1.23,2,2,0,2,1562,6455,1471,3854,71,71,0,71,0.05,3.05,1.18,0.53
2017-09-28 22:40:00,2,11077,73,0.02,2,2,0,2,9136,14638,1749,10392,71,77,3,71,0.00,0.05,0.02,0.00
2017-09-28 22:50:00,2,10769,66,0.02,2,2,0,2,5018,19500,4396,10256,0,77,22,71,0.00,0.05,0.02,0.00
2017-09-28 23:00:00,2,15372,0,0.00,2,2,0,2,7923,22067,4522,14882,0,0,0,0,0.00,0.00,0.00,0.00
2017-09-28 23:10:00,2,18558,0,0.00,2,2,0,2,8599,43719,11263,14344,0,0,0,0,0.00,0.00,0.00,0.00
2017-09-28 23:20:00,2,21962,0,0.00,2,2,0,2,18072,30300,3616,21235,0,0,0,0,0.00,0.00,0.00,0.00
2017-09-28 23:30:00,2,14035,0,0.00,2,2,0,2,6980,21649,5696,14640,0,0,0,0,0.00,0.00,0.00,0.00
2017-09-28 23:40:00,2,22770,0,0.00,2,2,0,2,12340,33147,6893,22306,0,0,0,0,0.00,0.00,0.00,0.00
2017-09-28 23:50:00,2,17540,0,0.00,2,2,0,2,10785,30716,7342,13106,0,0,0,0,0.00,0.00,0.00,0.00
